Lid_Strength_Index
13 12 13 13 13 13 13 13 13 12 12 12 12 11 11 11 11 10 10 10 9 9 8 8 7 6 6 5 5 4 4 4 5 4 6 8 9 9 10 10 10 9 9
13 14 14 14 14 14 14 13 13 13 13 13 13 13 13 13 13 12 12 12 12 11 10 9 9 8 8 7 6 6 6 5 5 6 5 8 9 10 10 11 10 10 9
14 14 15 15 15 15 15 14 14 14 14 14 14 14 15 14 14 14 13 13 12 11 11 10 10 10 10 9 9 8 7 6 6 6 7 9 9 10 10 10 10 11 10
15 15 15 15 14 14 14 14 13 13 13 13 13 14 14 14 13 13 12 13 13 12 12 11 11 11 11 11 11 10 9 8 8 7 7 7 9 10 11 11 11 12 11
16 16 15 15 15 15 14 14 14 14 14 14 14 14 14 13 13 13 13 13 13 13 13 12 12 12 12 11 11 11 11 11 10 9 9 8 9 11 11 11 11 11 12
16 16 16 16 16 15 16 16 16 16 15 15 15 15 15 14 12 11 12 13 14 14 14 13 13 13 13 11 11 10 10 11 11 11 10 10 9 10 11 11 11 13 13
17 17 17 16 16 16 16 16 16 16 16 16 16 15 16 15 12 12 12 13 14 14 14 14 13 13 13 13 12 11 11 11 10 11 12 11 11 10 11 12 12 12 12
17 17 17 16 16 16 16 17 17 16 17 16 16 16 16 15 13 12 12 14 14 14 14 14 14 13 13 13 13 13 13 13 13 13 13 12 11 12 12 11 11 12 14
17 17 17 17 17 17 17 18 17 17 17 17 16 16 16 16 13 12 12 14 13 14 13 14 14 14 12 11 13 14 13 13 12 11 10 10 10 10 10 13 15 16 14
17 17 17 17 17 18 18 18 17 17 16 16 16 16 17 16 14 12 12 13 14 14 14 14 13 14 12 12 13 13 14 14 13 14 14 14 13 14 12 13 13 15 15
16 17 17 17 17 17 17 17 17 17 17 18 17 17 17 16 15 12 12 14 14 14 14 15 14 13 12 12 11 13 14 12 12 13 14 14 16 16 16 15 15 14 14
17 18 18 19 17 17 18 18 18 18 19 19 19 18 18 17 15 14 13 13 13 14 15 15 14 13 12 12 13 12 12 12 14 15 16 16 17 16 16 17 16 16 16
19 20 21 20 18 17 19 19 20 20 21 20 20 19 19 17 17 15 14 14 14 15 15 14 13 13 13 13 13 13 14 15 16 17 17 16 16 16 18 18 18 17 17
21 20 20 20 20 20 19 19 21 22 22 20 20 19 18 17 17 17 16 16 15 15 15 15 15 14 14 15 15 15 15 16 16 17 17 16 17 20 20 18 18 18 18
21 21 21 21 23 22 21 21 20 20 20 21 21 19 18 18 17 15 15 16 16 16 16 17 18 19 19 19 18 18 17 17 18 17 17 17 16 17 17 17 17 17 18
23 23 23 23 24 23 24 23 19 18 17 16 16 17 18 16 16 15 15 15 15 15 19 22 22 22 21 21 20 20 18 18 18 17 16 16 16 16 16 16 16 17 18
23 23 24 24 24 25 25 25 26 23 19 19 18 18 18 17 17 17 17 16 17 18 26 24 23 23 22 21 21 21 21 19 17 17 16 15 15 14 15 15 16 16 17
27 26 26 26 27 28 27 27 28 29 28 26 23 21 20 19 19 18 18 20 25 24 30 26 24 23 23 23 23 21 22 21 20 19 17 15 15 14 14 14 15 16 16
27 28 28 29 30 29 30 30 30 32 32 31 28 24 25 21 20 19 20 30 29 27 26 26 25 24 24 23 22 21 21 21 20 20 18 15 14 14 14 13 14 14 14
31 28 29 31 32 32 32 32 33 34 34 34 33 31 29 27 25 26 26 30 32 28 26 26 25 24 23 23 22 22 22 21 21 20 18 16 15 13 13 14 14 15 15
31 32 31 34 34 34 34 34 33 34 34 35 31 30 22 25 30 29 28 28 27 27 26 25 24 24 23 23 22 22 21 21 20 20 19 18 16 16 14 13 13 13 14
31 32 34 34 34 34 35 34 34 35 35 34 31 31 24 32 32 30 29 28 28 26 25 24 24 23 22 22 22 22 21 21 21 20 19 18 18 16 14 13 13 13 14
31 33 35 35 34 34 34 35 36 36 36 36 34 33 32 31 31 30 29 28 27 26 24 23 23 23 22 21 21 21 21 21 20 19 20 19 18 17 16 15 14 14 15
32 33 34 36 35 33 32 33 35 35 36 35 36 35 34 33 30 29 28 27 26 25 24 23 23 22 22 22 21 21 20 20 20 19 19 18 18 17 16 15 14 15 15
33 32 31 30 32 31 31 32 34 34 35 35 34 36 34 32 30 28 27 26 25 24 23 23 22 22 22 23 23 23 22 21 20 18 17 17 17 17 16 15 15 15 15
29 29 30 30 30 30 32 32 34 35 34 32 32 33 33 31 29 28 27 26 25 24 24 23 23 23 24 23 22 21 20 17 17 17 16 15 16 16 15 15 15 15 16